Home > Weather > Unna > Past weeks

Flag for Germany Past Weather in Unna, North Rhine-Westphalia, Germany — Yesterday and Last 2 Weeks

Now
55 °F

Sunny.


Feels Like: 55 °F
Forecast: 59 / 70 °F
Wind: 2 mph from North

Location: Dortmund / Wickede

Current Time: May 28, 2016 at 8:08:09 AM

Latest Report: May 28, 2016 at 7:20 AM


Visibility: 10 mi

Pressure: 29.95 "Hg

Humidity: 88%

Dew Point: 52 °F

Location of UnnaLocation

Past Weather in Unna — Graph

°F

Unna Temperature Yesterday

Maximum temperature yesterday: 68 °F (at 2:20 PM)
Minimum temperature yesterday: 54 °F (at 5:20 AM)
Average temperature yesterday: 61 °F

High & Low Weather Summary for the Past Weeks

 TemperatureHumidityPressure
High73 °F (May 21, 5:50 PM)94% (May 23, 6:50 PM)30.12 "Hg (May 23, 6:50 PM)
Low39 °F (May 15, 5:20 AM)30% (May 13, 3:50 PM)29.56 "Hg (May 13, 6:20 AM)
Average56 °F65%29.93 "Hg
* Reported May 13 6:20 AM — May 28 6:50 AM, Unna, Weather by CustomWeather, © 2016

Note: Actual official high and low records may vary slightly from our data, if they occured in-between our weather recording intervals... More about our weather records

Advertising

Unna Weather History for the Previous 24 Hours

Scroll right to see more
 ConditionsComfort  
Time TempWeatherWind HumidityBarometerVisibility
6:50 AM
Sat, May 28
54 °FSunny.2 mph88%29.95 "Hg10 mi
6:20 AM55 °FSunny.3 mph88%29.95 "Hg10 mi
5:50 AM54 °FClear.No wind88%29.95 "Hg10 mi
5:20 AM54 °FClear.3 mph88%29.98 "Hg10 mi
9:50 PM
Fri, May 27
61 °FSunny.5 mph68%30.01 "Hg10 mi
9:20 PM63 °FSunny.6 mph64%29.98 "Hg10 mi
8:50 PM63 °FSunny.7 mph64%29.98 "Hg10 mi
8:20 PM64 °FSunny.7 mph64%29.98 "Hg10 mi
7:50 PM64 °FPassing clouds.7 mph68%29.98 "HgN/A
7:20 PM66 °FSunny.6 mph60%29.98 "Hg10 mi
6:50 PM68 °FPassing clouds.7 mph60%29.98 "HgN/A
6:20 PM68 °FPassing clouds.8 mph53%29.98 "HgN/A
5:50 PM68 °FPassing clouds.6 mph56%29.98 "HgN/A
5:20 PM68 °FPassing clouds.6 mph56%29.98 "HgN/A
4:50 PM66 °FSunny.3 mph64%29.98 "Hg10 mi
4:20 PM66 °FPassing clouds.5 mph68%29.98 "HgN/A
3:50 PM64 °FPassing clouds.5 mph73%30.01 "HgN/A
3:20 PM66 °FScattered clouds.5 mph64%30.01 "Hg6 mi
2:50 PM66 °FClear.7 mph64%30.01 "Hg6 mi
2:20 PM68 °FPassing clouds.7 mph56%30.01 "HgN/A
1:50 PM66 °FPassing clouds.6 mph64%30.01 "HgN/A
1:20 PM66 °FPassing clouds.5 mph60%30.01 "HgN/A
12:50 PM63 °FPassing clouds.5 mph68%30.01 "HgN/A
12:20 PM63 °FClear.5 mph68%30.01 "Hg6 mi
11:50 AM61 °FClear.3 mph72%30.01 "Hg6 mi
11:20 AM61 °FClear.2 mph72%30.01 "Hg6 mi
10:50 AM59 °FClear.3 mph72%30.01 "Hg5 mi
10:20 AM57 °FClear.5 mph72%30.01 "Hg4 mi
9:50 AM57 °FClear.5 mph77%30.01 "Hg4 mi
9:20 AM55 °FClear.5 mph82%30.01 "Hg4 mi
8:50 AM55 °FClear.3 mph82%30.01 "Hg3 mi
8:20 AM54 °FClear.5 mph82%30.01 "Hg4 mi
Weather by CustomWeather, © 2016

See weather overviewHow to use our weather pages